Jaloliddin Fayzullaev

Scout - Lokomotiv
3 Dez 2028
Sonntag
Verarbeitung

Persönlichkeit

Anpassungsfähigkeit (9) Ehrgeiz (16) Kontroverse (5) Loyalität (9) Druck (6) Professionalität (20) Fairness (16) Temperament (7)

Profil

Trainerstil Demokratisch
Lizenz Kontinentale B
Entschlossenheit 4
Menschenführung 5
Motivation 6
Disziplin 9
Arbeitszufriedenheit
100%
Ermüdung
0%
Rolle Scout
Gehalt 49.8K p/W
Vertrag 14.03.2029

Leistung

Verhalten Gut
Trainingseffektivität
26%
Spielerentwicklung
50%
Verletzungsprävention
50%
Taktische Umsetzung
15%

Letzte Ereignisse

Nahm an einer Scouting-Besprechung teil 35T her
Nahm an einer Scouting-Besprechung teil 35T her
Nahm an einer Scouting-Besprechung teil 42T her
Nahm an einer Scouting-Besprechung teil 42T her
Nahm an einer Scouting-Besprechung teil 49T her
Nahm an einer Scouting-Besprechung teil 49T her
Nahm an einer Scouting-Besprechung teil 56T her
Nahm an einer Scouting-Besprechung teil 56T her

Aktuell beobachtet

133
Spieler Verein Status Fähigkeit Vertrauen Beobachtet Zuletzt beobachtet Letzte Stimme
Agustín Morales Estudiantes Aktiv 127 / 128 40% 2 26.08.2028 -
Juan Velázquez Belgrano Aktiv 114 / 146 40% 2 26.08.2028 -
Denis M. Kovalevich Dinamo Brest Aktiv 110 / 82 40% 5 22.08.2028 -
Léo Natel Ordabasy Aktiv 128 / 125 40% 4 22.08.2028 -
Mauro Valiente Estudiantes Aktiv 133 / 119 40% 1 21.08.2028 -
Gennaro Tutino Sampdoria Aktiv 143 / 145 40% 1 19.08.2028 -
Nahuel Curcio Colón Aktiv 128 / 111 40% 1 19.08.2028 -
Yuber Quiñónes Patriotas Aktiv 119 / 109 40% 3 18.08.2028 -
Daniel Barrea Godoy Cruz Aktiv 134 / 113 40% 1 18.08.2028 -
Federico Bisanz Atlanta Aktiv 127 / 106 40% 1 17.08.2028 -
Lautaro Disanto Defensores Unidos Aktiv 94 / 98 40% 1 17.08.2028 -
Juan Sebastián Herrera Deportivo La Guaira Aktiv 111 / 108 40% 2 16.08.2028 -
Davide Di Molfetta Union Brescia Aktiv 107 / 108 40% 2 15.08.2028 -
Iñaki Larthirigoyen San Telmo Aktiv 122 / 121 40% 1 15.08.2028 -
Alexandr Lomovitskiy Torpedo-BelAZ Aktiv 94 / 107 40% 1 15.08.2028 -
Gianluca D'Auria Potenza Aktiv 116 / 101 40% 2 12.08.2028 -
Milton Castagna Walsall Aktiv 105 / 97 40% 4 09.08.2028 -
Jonny Smith Wigan Athletic Aktiv 110 / 88 40% 1 09.08.2028 -
Connor Ogilvie Grimsby Town Aktiv 114 / 119 40% 3 07.08.2028 -
Luca Vido Union Brescia Aktiv 118 / 116 40% 3 07.08.2028 -
Farhodjon Sohibjonov Neftchi Aktiv 93 / 84 48% 1 07.08.2028 -
Lewie Coyle Accrington Stanley Aktiv 125 / 117 40% 3 06.08.2028 -
Idris Kanu Barnet Aktiv 88 / 95 40% 1 06.08.2028 -
Luis Guerra Tobol Aktiv 109 / 95 40% 3 04.08.2028 -
Tyler Walton Bromley Aktiv 108 / 83 40% 1 03.08.2028 -
Kelechi Nwakali Barnsley Aktiv 124 / 106 40% 1 03.08.2028 -
Hakeeb Adelakun Doncaster Rovers Aktiv 125 / 122 40% 1 02.08.2028 -
Jodi Jones Notts County Aktiv 106 / 92 40% 1 01.08.2028 -
John Kelly Fleetwood Town Aktiv 95 / 101 40% 1 30.07.2028 -
Ben Whiteman Harrogate Town Aktiv 103 / 126 40% 2 27.07.2028 -
Leo Pecover Swindon Town Aktiv 121 / 108 40% 1 27.07.2028 -
Aaron McGowan Tranmere Rovers Aktiv 93 / 107 40% 2 25.07.2028 -
Kimarni Smith Newport County Aktiv 112 / 105 40% 1 25.07.2028 -
Daniil Martovoy Pontedera Aktiv 81 / 105 40% 2 24.07.2028 -
Frazer Blake-Tracy Newport County Aktiv 117 / 95 40% 1 23.07.2028 -
Louis Flower Crawley Town Aktiv 90 / 113 40% 2 21.07.2028 -
Dan Crowley Milton Keynes Dons Aktiv 119 / 91 40% 1 19.07.2028 -
Bojan Roganović Torpedo Moscow Aktiv 108 / 95 40% 5 15.07.2028 -
Darko Todorović Fakel Aktiv 137 / 101 40% 11 14.07.2028 -
Stepan Oganesyan Fakel Aktiv 90 / 90 40% 3 13.07.2028 -
Daniil Penchikov Arsenal Tula Aktiv 96 / 104 40% 4 11.07.2028 -
Andrey Nikitin Neftekhimik Abgelehnt 116 / 112 40% 5 09.07.2028 Ablehnen
Fahd Moufi Baltika Aktiv 118 / 117 40% 5 07.07.2028 -
Jordan Gibson Cheltenham Town Aktiv 96 / 125 40% 1 07.07.2028 -
Kamran Aliev SKA Khabarovsk Abgelehnt 110 / 90 40% 10 06.07.2028 Ablehnen
Charles Vernam Grimsby Town Aktiv 106 / 127 40% 4 26.06.2028 -
Mohamed Niaré Neftchi Aktiv 98 / 108 48% 1 26.06.2028 -
Artur Murza Volga Aktiv 112 / 80 40% 4 19.06.2028 -
Azizxon Isaqov Kokand 1912 Aktiv 94 / 94 30% 1 / 1m 14.06.2028 -
Vasily Cherov Ufa Aktiv 106 / 106 40% 4 07.06.2028 -
Ilja Berkovskiy Torpedo Moscow Aktiv 94 / 117 40% 9 07.06.2028 -
Roman Yezhov Sochi Aktiv 131 / 112 40% 6 03.06.2028 -
François Kamano Sochi Aktiv 118 / 114 40% 8 02.06.2028 -
Greg Docherty Barrow AFC Aktiv 114 / 124 40% 1 02.06.2028 -
Nikolay Boyarkin Salyut Aktiv 103 / 92 40% 4 01.06.2028 -
Ramazan Gadjimuradov Chelyabinsk Abgelehnt 109 / 115 40% 7 28.05.2028 -
Rui Costa Port Vale Abgelehnt 130 / 103 40% 1 27.05.2028 -
Đorđe Pantelić Spartak Kostroma Abgelehnt 126 / 113 40% 4 26.05.2028 -
Artem Makarchuk Sochi Abgelehnt 99 / 123 40% 6 26.05.2028 Ablehnen
Alexandr Saplinov Volga Abgelehnt 114 / 104 40% 5 22.05.2028 -
Danil Lipovoy Ufa Aktiv 86 / 83 40% 3 20.05.2028 -
Ben Garrity Port Vale Aktiv 102 / 106 40% 3 11.05.2028 -
Evgeny Voronin Volga Aktiv 87 / 80 40% 3 06.05.2028 -
Danila Yanov Shinnik Aktiv 109 / 85 40% 2 26.04.2028 -
Harry Anderson Bristol Rovers Aktiv 125 / 101 40% 1 24.04.2028 -
Vladislav Sarveli Nizhniy Novgorod Aktiv 113 / 102 40% 7 18.04.2028 -
Andrey Mazurin Yenisey Aktiv 120 / 116 40% 4 18.04.2028 -
Maxim Danilin Shinnik Aktiv 78 / 96 40% 2 15.04.2028 -
Alexandr Kovalenko Sochi Aktiv 129 / 131 40% 1 14.04.2028 -
Surkhaikhan Abdullaev KAMAZ Aktiv 75 / 97 40% 2 13.04.2028 -
Migran Ageyan Ufa Aktiv 116 / 115 40% 1 13.04.2028 -
Soslan Takulov Arsenal Tula Aktiv 91 / 109 40% 2 02.04.2028 -
Alexandr Yushin Torpedo Moscow Aktiv 112 / 95 40% 4 22.03.2028 -
Ilja Safronov Rotor Aktiv 106 / 97 40% 3 20.03.2028 -
Arshak Koryan SKA Khabarovsk Aktiv 107 / 110 40% 1 15.03.2028 -
Eldar Ćivić Baltika Aktiv 104 / 118 40% 3 02.03.2028 -
Maxime Sivis Orenburg Aktiv 128 / 110 40% 2 01.03.2028 -
Alexey Antilevskiy Slavia Mozyr Aktiv 78 / 96 40% 1 24.02.2028 -
Danil Karpov KAMAZ Aktiv 81 / 78 40% 2 22.02.2028 -
Bashar Resan Pakhtakor Aktiv 130 / 108 40% 2 17.02.2028 -
Ilja Zhigulev Chernomorets Aktiv 82 / 111 40% 1 17.02.2028 -
Asadbek Sobirjonov AGMK Aktiv 110 / 114 40% 1 16.02.2028 -
Artur Galoyan Torpedo Moscow Aktiv 125 / 105 40% 1 16.02.2028 -
Giorgi Zaria Aktobe Aktiv 109 / 107 40% 2 05.02.2028 -
Stefan Kovač Baltika Aktiv 106 / 124 40% 1 05.02.2028 -
Fortune Bassey Bunyodkor Aktiv 119 / 111 40% 2 01.02.2028 -
Esteban Obregón Montevideo City Torque Aktiv 111 / 130 40% 1 31.01.2028 -
Alfred Mazurich Lida Aktiv 97 / 95 40% 2 23.01.2028 -
Facundo Taborda Racing Aktiv 118 / 121 40% 1 23.01.2028 -
David Karaev KAMAZ Aktiv 104 / 100 40% 2 22.01.2028 -
Marco Miori Alvarado Aktiv 92 / 132 40% 2 21.01.2028 -
Martin Sekulić Ural Aktiv 97 / 113 40% 1 21.01.2028 -
Flamarion Pakhtakor Aktiv 109 / 110 40% 2 20.01.2028 -
Edmilson Kairat Aktiv 121 / 97 40% 2 20.01.2028 -
Juan David Rueda Alianza Petrolera Aktiv 114 / 130 40% 2 20.01.2028 -
Luca Franco Arsenal Aktiv 99 / 114 40% 1 20.01.2028 -
Axel Gnapi Dable Fakel Aktiv 120 / 94 40% 1 19.01.2028 -
Omar Popov Dinamo St Petersburg Aktiv 94 / 67 40% 1 19.01.2028 -
Magomed Nasibov Pobeda Aktiv 104 / 78 40% 1 18.01.2028 -
Ljupce Doriev Sogdiana Aktiv 126 / 119 40% 5 17.01.2028 -
Steven Alfred Torpedo-BelAZ Aktiv 105 / 109 40% 1 17.01.2028 -
Zoran Marušić Neftchi Aktiv 116 / 113 48% 2 15.01.2028 -
Kirill Tsepenkov Dnepr Mogilev Aktiv 90 / 90 40% 1 12.01.2028 -
Aleksandar Boljević Sogdiana Aktiv 114 / 100 40% 1 30.08.2027 -
Evgeniy Yudchits Isloch Aktiv 82 / 113 40% 1 30.08.2027 -
Kirill Leonovich Gomel Aktiv 92 / 113 40% 2 23.08.2027 -
Sūltanbek Astanov Ordabasy Aktiv 98 / 115 40% 1 23.08.2027 -
Däuren Jūmat Tobol Aktiv 97 / 116 40% 2 22.08.2027 -
Vladislav Melko Torpedo-BelAZ Aktiv 111 / 99 40% 1 22.08.2027 -
Maxim Yablonskiy Molodechno Aktiv 82 / 99 40% 1 20.08.2027 -
Allano Bhayangkara Presisi Aktiv 107 / 115 40% 2 16.08.2027 -
Arman Keńesov Aktobe Aktiv 110 / 100 40% 1 15.08.2027 -
Georgii Zhukov Aktobe Aktiv 119 / 102 40% 1 11.08.2027 -
Jasurbek Hakimov Shortan Aktiv 82 / 73 48% 1 09.08.2027 -
Johan Campaña Patriotas Aktiv 102 / 110 40% 1 05.08.2027 -
Marc Gual Kairat Aktiv 123 / 117 40% 1 22.07.2027 -
Karlo Bartolec Astana Aktiv 124 / 114 40% 1 19.07.2027 -
Remeao Hutton Gillingham Aktiv 76 / 109 40% 1 17.07.2027 -
Vladislav Kamilov Ufa Aktiv 124 / 117 40% 1 15.07.2027 -
Nuri Abdokov Fakel Aktiv 115 / 106 40% 3 13.07.2027 -
Ruslan Apekov Torpedo Moscow Aktiv 95 / 117 40% 3 11.07.2027 -
Vyacheslav Yakimov Fakel Aktiv 113 / 127 40% 1 07.07.2027 -
Alexandr Nadolskiy Yenisey Aktiv 113 / 82 40% 1 04.07.2027 -
Daniil Gurchenko Spartak Tambov Aktiv 79 / 74 40% 1 03.07.2027 -
Alexey Berdnikov Chelyabinsk Aktiv 98 / 103 40% 2 01.07.2027 -
Alexandr Lomakin Yenisey Aktiv 102 / 83 40% 1 28.06.2027 -
Anton Antonov Chernomorets Aktiv 117 / 87 40% 1 21.06.2027 -
Rassambek Akhmatov KAMAZ Aktiv 112 / 100 40% 1 20.06.2027 -
Artem Simonyan Rotor Aktiv 85 / 90 40% 1 17.06.2027 -
David Kokoev Yenisey Aktiv 87 / 91 40% 1 15.06.2027 -
Umarbek Eshmurodov Nasaf Aktiv 115 / 111 48% 1 14.06.2027 -
Igor Shkolik SKA Khabarovsk Aktiv 78 / 90 40% 1 14.06.2027 -
Jaloliddin Sodiqov Navbahor Aktiv 99 / 93 44% 1 24.08.2026 -